Tracking 20093 objects as of 16-Dec-2019
HD Live streaming from Space Station
objects crossing your sky now

COSMOS 2251 DEB

Track COSMOS 2251 DEB now!
10-day predictions


NORAD ID: 34879
Int'l Code: 1993-036ACS
Perigee: 767.2 km
Apogee: 1,583.9 km
Inclination: 73.9 °
Period: 108.7 minutes
Semi major axis: 7546 km
RCS: 0.0088 m2 (small)
Launch date: June 16, 1993
Source: Commonwealth of Independent States (former USSR) (CIS)
Launch site: PLESETSK MISSILE AND SPACE COMPLEX (PKMTR)

Note: This is SATELLITE DEBRIS
aabbcc
Your satellite tracking list
Your tracking list is empty




NASA's NSSDC Master Catalog

Two Line Element Set (TLE):
1 34879U 93036ACS 19347.69643712  .00000700  00000-0  76668-3 0  9997
2 34879  73.9185  93.1575 0541115 200.3368 157.5420 13.24286220520545
Source of the keplerian elements: AFSPC